Weather History for Port Lavaca, TX

Change the Weather History Date:

Tuesday, January 14, 2014

  Actual Average (KVCT) Record (KVCT)
Temperature  
Mean Temperature 54 °F 54 °F  
Max Temperature 71 °F 64 °F 85 °F (1923)
Min Temperature 37 °F 43 °F 20 °F (1982)
Degree Days  
Heating Degree Days 11 12  
Month to date heating degree days 168  
Since 1 July heating degree days 662  
Cooling Degree Days 0 0  
Month to date cooling degree days 7  
Year to date cooling degree days 7  
Growing Degree Days 4 (Base 50)    
Moisture  
Dew Point 38 °F    
Average Humidity 59    
Maximum Humidity 84    
Minimum Humidity 28    
Precipitation  
Precipitation 0.00 in 0.08 in 0.71 in (2010)
Month to date precipitation 1.16  
Year to date precipitation 1.16  
Snow  
Snow 0.00 in - - ()
Month to date snowfall  
Since 1 July snowfall  
Snow Depth -    
Sea Level Pressure  
Sea Level Pressure 30.13 in    
Wind  
Wind Speed 5 mph (SW)    
Max Wind Speed 17 mph    
Max Gust Speed 28 mph    
Visibility 10 miles    
Events      
T = Trace of Precipitation, MM = Missing Value Source: NWS Daily Summary

Daily Weather History Graph

Daily Weather History Graph

Search for Another Location

Airport:

Trip Planner

Search our weather history database for the weather conditions in past years. The results will help you decide how hot, cold, wet, or windy it might be!

Date:

Astronomy

Jan. 14, 2014 Rise Set
Actual Time 7:20 AM CST 5:51 PM CST
Civil Twilight 6:55 AM CST 6:16 PM CST
Nautical Twilight 6:26 AM CST 6:45 PM CST
Astronomical Twilight 5:57 AM CST 7:14 PM CST
Moon 4:54 PM CST (1/14) 5:58 AM CST (1/14)
Length of Visible Light 11h 21m
Length of Day
10h 30m
Waxing Gibbous, 98% of the Moon is Illuminated
Jan 14
Waxing Gibbous
Jan 15
Full
Jan 23
Last Quarter
Jan 30
New
Feb 6
First Quarter

Hourly Weather History & Observations

Time (CST) Temp. Windchill Dew Point Humidity Pressure Visibility Wind Dir Wind Speed Gust Speed Precip Events Conditions
12:15 AM 43.5 °F - 33.6 °F 68% 30.15 in 10.0 mi Calm Calm - N/A   Clear
12:35 AM 42.1 °F - 36.5 °F 81% 30.14 in 10.0 mi Calm Calm - N/A   Clear
12:55 AM 42.3 °F - 35.6 °F 77% 30.14 in 10.0 mi Calm Calm - N/A   Clear
1:15 AM 42.1 °F - 36.5 °F 81% 30.13 in 10.0 mi Calm Calm - N/A   Clear
1:35 AM 43.9 °F - 32.7 °F 65% 30.13 in 10.0 mi Calm Calm - N/A   Clear
1:55 AM 42.3 °F - 37.2 °F 82% 30.13 in 10.0 mi Calm Calm - N/A   Clear
2:15 AM 42.3 °F - 32.9 °F 69% 30.12 in 10.0 mi Calm Calm - N/A   Clear
2:35 AM 41.0 °F - 33.6 °F 75% 30.11 in 10.0 mi Calm Calm - N/A   Clear
2:55 AM 41.9 °F - 32.7 °F 70% 30.11 in 10.0 mi Calm Calm - N/A   Clear
3:15 AM 39.4 °F 36.1 °F 31.5 °F 73% 30.10 in 10.0 mi ENE 4.6 mph - N/A   Clear
3:35 AM 41.4 °F 38.4 °F 31.8 °F 69% 30.10 in 10.0 mi East 4.6 mph - N/A   Clear
3:55 AM 42.3 °F - 31.6 °F 66% 30.10 in 10.0 mi Calm Calm - N/A   Clear
4:15 AM 41.0 °F - 34.5 °F 78% 30.10 in 10.0 mi Calm Calm - N/A   Clear
4:35 AM 39.6 °F - 33.4 °F 79% 30.10 in 10.0 mi Calm Calm - N/A   Clear
4:55 AM 39.2 °F 35.9 °F 34.0 °F 82% 30.10 in 10.0 mi SW 4.6 mph - N/A   Clear
5:15 AM 38.7 °F 34.3 °F 33.3 °F 81% 30.10 in 10.0 mi WSW 5.8 mph - N/A   Clear
5:35 AM 38.1 °F 33.7 °F 33.1 °F 82% 30.11 in 10.0 mi WSW 5.8 mph - N/A   Clear
5:55 AM 38.3 °F 33.2 °F 32.2 °F 79% 30.11 in 10.0 mi WSW 6.9 mph - N/A   Clear
6:15 AM 37.9 °F 32.1 °F 32.0 °F 79% 30.12 in 10.0 mi WSW 8.1 mph - N/A   Clear
6:35 AM 37.8 °F 34.2 °F 32.2 °F 80% 30.13 in 10.0 mi West 4.6 mph - N/A   Clear
6:55 AM 37.4 °F 33.8 °F 32.9 °F 84% 30.13 in 10.0 mi West 4.6 mph - N/A   Clear
7:15 AM 37.6 °F 34.0 °F 32.9 °F 83% 30.13 in 10.0 mi West 4.6 mph - N/A   Clear
7:35 AM 37.4 °F 32.8 °F 32.9 °F 84% 30.14 in 10.0 mi West 5.8 mph - N/A   Clear
7:55 AM 37.8 °F 33.3 °F 33.1 °F 83% 30.14 in 10.0 mi WSW 5.8 mph - N/A   Clear
8:15 AM 40.1 °F 36.1 °F 33.6 °F 78% 30.15 in 10.0 mi WSW 5.8 mph - N/A   Clear
8:35 AM 42.4 °F 39.6 °F 35.6 °F 77% 30.16 in 10.0 mi West 4.6 mph - N/A   Clear
9:15 AM 49.6 °F - 38.5 °F 65% 30.16 in 10.0 mi West 5.8 mph - N/A   Clear
9:35 AM 53.4 °F - 38.7 °F 57% 30.17 in 10.0 mi West 5.8 mph - N/A   Clear
9:55 AM 56.8 °F - 39.7 °F 53% 30.17 in 10.0 mi WSW 5.8 mph - N/A   Clear
10:15 AM 59.9 °F - 40.1 °F 48% 30.17 in 10.0 mi SSW 4.6 mph - N/A   Clear
10:35 AM 62.8 °F - 40.6 °F 44% 30.17 in 10.0 mi SSW 3.5 mph - N/A   Clear
10:55 AM 65.1 °F - 40.8 °F 41% 30.17 in 10.0 mi SSW 6.9 mph - N/A   Clear
11:15 AM 66.9 °F - 39.7 °F 37% 30.16 in 10.0 mi South 8.1 mph - N/A   Clear
11:35 AM 68.4 °F - 38.5 °F 33% 30.15 in 10.0 mi SW 11.5 mph - N/A   Clear
11:55 AM 69.1 °F - 34.9 °F 28% 30.13 in 10.0 mi SW 15.0 mph 20.7 mph N/A   Clear
12:15 PM 69.1 °F - 36.9 °F 31% 30.12 in 10.0 mi SW 13.8 mph - N/A   Clear
12:35 PM 70.0 °F - 37.9 °F 31% 30.11 in 10.0 mi SSW 11.5 mph 18.4 mph N/A   Clear
12:55 PM 70.3 °F - 38.7 °F 31% 30.10 in 10.0 mi South 10.4 mph 21.9 mph N/A   Clear
1:15 PM 71.2 °F - 38.7 °F 31% 30.08 in 10.0 mi SSW 12.7 mph 17.3 mph N/A   Clear
1:35 PM 70.5 °F - 37.9 °F 30% 30.07 in 10.0 mi South 12.7 mph 19.6 mph N/A   Clear
1:55 PM 71.1 °F - 37.4 °F 29% 30.07 in 10.0 mi South 11.5 mph - N/A   Clear
2:15 PM 70.7 °F - 38.8 °F 31% 30.06 in 10.0 mi South 15.0 mph - N/A   Clear
2:35 PM 70.5 °F - 39.0 °F 32% 30.06 in 10.0 mi South 13.8 mph 19.6 mph N/A   Clear
2:55 PM 70.7 °F - 38.5 °F 31% 30.06 in 10.0 mi South 15.0 mph - N/A   Clear
3:15 PM 70.3 °F - 38.5 °F 31% 30.06 in 10.0 mi South 15.0 mph 19.6 mph N/A   Clear
3:35 PM 70.0 °F - 39.0 °F 32% 30.06 in 10.0 mi South 15.0 mph - N/A   Clear
3:55 PM 69.1 °F - 38.5 °F 33% 30.06 in 10.0 mi South 15.0 mph - N/A   Clear
4:15 PM 68.4 °F - 37.6 °F 32% 30.06 in 10.0 mi South 17.3 mph - N/A   Clear
4:35 PM 67.6 °F - 37.8 °F 33% 30.06 in 10.0 mi South 13.8 mph - N/A   Clear
4:55 PM 66.6 °F - 37.9 °F 35% 30.06 in 10.0 mi South 15.0 mph - N/A   Clear
5:15 PM 65.3 °F - 37.9 °F 36% 30.06 in 10.0 mi South 12.7 mph - N/A   Clear
5:35 PM 63.7 °F - 39.2 °F 41% 30.07 in 10.0 mi South 11.5 mph - N/A   Clear
5:55 PM 61.5 °F - 40.5 °F 46% 30.07 in 10.0 mi South 8.1 mph - N/A   Clear
6:15 PM 58.8 °F - 41.4 °F 52% 30.08 in 10.0 mi South 8.1 mph - N/A   Clear
6:35 PM 57.0 °F - 42.8 °F 59% 30.08 in 10.0 mi South 6.9 mph - N/A   Clear
6:55 PM 55.4 °F - 43.2 °F 63% 30.10 in 10.0 mi South 6.9 mph - N/A   Clear
7:15 PM 54.7 °F - 44.2 °F 68% 30.11 in 10.0 mi South 5.8 mph - N/A   Clear
7:35 PM 54.0 °F - 45.1 °F 72% 30.11 in 10.0 mi SSW 5.8 mph - N/A   Clear
7:55 PM 53.1 °F - 46.0 °F 77% 30.12 in 10.0 mi SSW 3.5 mph - N/A   Clear
8:15 PM 52.0 °F - 45.1 °F 77% 30.13 in 10.0 mi Calm Calm - N/A   Clear
8:35 PM 52.0 °F - 45.5 °F 79% 30.14 in 10.0 mi SSW 4.6 mph - N/A   Clear
8:55 PM 51.1 °F - 45.7 °F 82% 30.14 in 10.0 mi SW 3.5 mph - N/A   Clear
9:15 PM 53.6 °F - 46.6 °F 77% 30.20 in 10.0 mi NW 11.5 mph 27.6 mph N/A   Clear
9:35 PM 56.5 °F - 45.0 °F 65% 30.20 in 10.0 mi West 12.7 mph - N/A   Clear
9:55 PM 56.1 °F - 43.7 °F 63% 30.20 in 10.0 mi WNW 9.2 mph - N/A   Clear
10:15 PM 55.4 °F - 39.7 °F 56% 30.21 in 10.0 mi NW 8.1 mph - N/A   Clear
10:35 PM 55.4 °F - 36.3 °F 49% 30.21 in 10.0 mi NW 8.1 mph - N/A   Clear
10:55 PM 50.5 °F - 36.3 °F 58% 30.23 in 10.0 mi NNW 10.4 mph - N/A   Clear
11:15 PM 50.4 °F - 35.1 °F 56% 30.24 in 10.0 mi NNW 11.5 mph - N/A   Clear
11:35 PM 52.2 °F - 34.0 °F 50% 30.24 in 10.0 mi North 12.7 mph - N/A   Clear
11:55 PM 52.2 °F - 33.8 °F 50% 30.24 in 10.0 mi NNW 11.5 mph - N/A   Clear